Weather Roundup
Issued by NWS

Home | Current Version | Previous Version | Graphics & Text | Print | Product List | Glossary Off
Versions: 1 2 3 4 5 6 7 8 9 10 11 12 13 14 15 16 17 18 19 20 21 22 23 24 25 26 27 28 29 30 31 32 33 34 35 36 37 38 39 40 41 42 43 44 45 46 47 48 49 50

672
NZUS93 KARX 120459
HRRWXR

CURRENT HOURLY OBSERVATIONS ACROSS
MUCH OF THE UPPER MISSISSIPPI VALLEY
NATIONAL WEATHER SERVICE LA CROSSE WI
1100 PM CST THU FEB 11 2016


...SOUTHEAST MINNESOTA...


CITY           SKY/WX    TMP DP  RH WIND       PRES   REMARKS
ROCHESTER      CLOUDY    12   5  73 W8        30.19F WCI   0
ROCHESTER/MAYO CLOUDY    14   7  73 W5        30.21S WCI   7
WINONA         FLURRIES  16   7  67 W6        30.24F WCI   7
AUSTIN         FLURRIES  12   7  79 W5        30.20F WCI   4
ALBERT LEA     CLOUDY    12   9  85 SW3       30.20F
DODGE CENTER   FLURRIES  12   7  79 W10       30.18F WCI  -1
PRESTON        FLURRIES  10   3  72 W3        30.19F
OWATONNA       CLOUDY    14   9  79 SW8       30.20F WCI   3
FARIBAULT        N/A     14   9  79 SW5       30.21F WCI   6
$$

...ELSEWHERE IN MINNESOTA...


CITY           SKY/WX    TMP DP  RH WIND       PRES   REMARKS
MINNEAPOLIS    CLOUDY    14   7  73 W6        30.23F WCI   5
INTNL FALLS    CLEAR      2  -6  69 NW10      30.14R WCI -14
DULUTH         CLOUDY    10  -2  58 NW12      30.09F WCI  -5
RED WING       NOT AVBL
REDWOOD FALLS  CLOUDY    17  13  84 NW8       30.23S WCI   7
MANKATO        CLOUDY    14   9  79 W7        30.22S WCI   4
WORTHINGTON    CLOUDY    10   7  85 W10       30.20S WCI  -3
FAIRMONT       CLOUDY    12   7  79 W5        30.21S WCI   4
$$

...SOUTHWEST WISCONSIN...


CITY           SKY/WX    TMP DP  RH WIND       PRES   REMARKS
LA CROSSE      CLOUDY    15   1  53 W5        30.24F WCI   8
PRAIRIE DU CHI CLOUDY    14   4  63 CALM      30.26F
BOSCOBEL       CLOUDY    15   3  59 SW3       30.26F
LONE ROCK      NOT AVBL
PLATTEVILLE    CLOUDY    14   4  65 SW5       30.22F WCI   6
FORT MC COY    CLOUDY    14   3  60 W3        30.22F
VIROQUA        CLOUDY    12   3  68 SW6       30.18F WCI   2
WIS DELLS      CLOUDY    14   1  55 W7        30.20F WCI   4
$$

...ELSEWHERE IN WISCONSIN...


CITY           SKY/WX    TMP DP  RH WIND       PRES   REMARKS
MILWAUKEE      CLOUDY    16   1  51 W7        30.22F WCI   6
MADISON        CLOUDY    16   0  49 VRB6      30.20F WCI   7
GREEN BAY      CLOUDY    15   0  51 SW7       30.15F WCI   5
EAU CLAIRE     NOT AVBL
BLACK RVR FLS  CLOUDY    15  -1  49 SW3       30.21F
MEDFORD        CLOUDY    11   0  60 W8        30.11F WCI  -1
WAUSAU         CLOUDY    14   0  53 W14       30.11F WCI  -1
WIS RAPIDS     CLOUDY    14  -2  49 W9        30.17F WCI   2
MARSHFIELD     CLOUDY    14  -1  51 W10       30.13F WCI   1
RICE LAKE      CLOUDY    13   4  65 W7        30.19S WCI   3
$$

...NORTHEAST IOWA...


CITY           SKY/WX    TMP DP  RH WIND       PRES   REMARKS
WATERLOO       CLOUDY     7   2  80 CALM      30.24F
DUBUQUE        MOCLDY    14   4  64 CALM      30.22F
DECORAH        CLOUDY    10   3  72 CALM      30.21F
MASON CITY     CLOUDY    11   6  81 SW3       30.22F
CHARLES CITY   CLOUDY    10   3  72 SW5       30.23S WCI   2
OELWEIN        CLOUDY     9   3  78 CALM      30.24S
$$

...ELSEWHERE IN IOWA...


CITY           SKY/WX    TMP DP  RH WIND       PRES   REMARKS
DES MOINES     FLURRIES  18  13  80 E5        30.24F WCI  11
IOWA CITY      CLOUDY    20  15  81 SW5       30.28S WCI  13
FORT DODGE     CLOUDY    16  10  79 SW3       30.23S
MARSHALLTOWN   MOCLDY    13  10  88 CALM      30.23S
CEDAR RAPIDS   CLOUDY    19  13  77 SW5       30.24S WCI  12
$$

...NORTHERN ILLINOIS...


CITY           SKY/WX    TMP DP  RH WIND       PRES   REMARKS
CHICAGO-OHARE  CLOUDY    18   7  62 W5        30.25F WCI  11
CHICAGO-MIDWAY CLOUDY    19   4  51 SW3       30.26F
MOLINE         CLOUDY    22   9  57 CALM      30.26S
ROCKFORD       CLOUDY    18   6  59 SW5       30.26F WCI  11
PEORIA         CLOUDY    24  10  55 SW6       30.27F WCI  17
$$

NOTE: "FAIR" INDICATES FEW OR NO CLOUDS BELOW 12,000 FEET WITH NO
SIGNIFICANT WEATHER AND/OR OBSTRUCTIONS TO VISIBILITY. WIND
SPEEDS ARE IN MILES-PER-HOUR.




USA.gov is the U.S. government's official web portal to all federal, state and local government web resources and services.